Location: Whitin Observatory
(42.2950°N, 71.3033°W)
Time: 02:18:40
(UTC-04:00)

Envisat - Visible Passes

Search period start: 18 October 2019 00:00
Search period end: 28 October 2019 00:00
Orbit: 764 x 766 km, 98.1° (Epoch: 17 October)

Date Brightness Start Highest point End Pass type
(mag) Time Alt. Az. Time Alt. Az. Time Alt. Az.
18 Oct 5.1 19:45:40 10° SSW 19:49:56 27° W 19:54:14 10° NW visible
19 Oct 6.6 06:16:40 10° ENE 06:18:25 12° E 06:20:09 10° ESE visible
19 Oct 3.6 19:07:59 10° S 19:12:59 60° W 19:18:02 10° NNW visible
20 Oct 3.0 18:31:15 10° SSE 18:36:14 63° ENE 18:41:16 10° N visible
20 Oct 5.9 20:12:43 10° SW 20:15:41 16° W 20:18:42 10° NW visible
21 Oct 4.7 19:34:01 10° SSW 19:38:36 34° W 19:43:12 10° NNW visible
22 Oct 3.2 18:56:38 10° S 19:01:43 76° WSW 19:06:49 10° NNW visible
23 Oct 3.2 18:20:08 10° SE 18:25:01 50° ENE 18:29:55 10° N visible
23 Oct 5.6 20:00:40 10° SW 20:04:19 20° W 20:07:58 10° NW visible
24 Oct 6.1 06:29:39 10° NE 06:32:50 17° E 06:36:01 10° SE visible
24 Oct 4.3 19:22:28 10° S 19:27:17 43° W 19:32:07 10° NNW visible
25 Oct 3.0 18:45:22 10° SSE 18:50:27 86° ENE 18:55:34 10° NNW visible
25 Oct 6.2 20:28:52 10° WSW 20:30:07 11° W 20:31:22 10° WNW visible
26 Oct 3.4 18:09:07 10° SE 18:13:49 40° ENE 18:18:32 10° N visible
26 Oct 5.3 19:48:49 10° SSW 19:52:56 25° W 19:57:05 10° NW visible
27 Oct 6.4 06:19:10 10° ENE 06:21:27 13° E 06:23:42 10° ESE visible
27 Oct 3.8 19:11:01 10° S 19:15:58 54° W 19:20:58 10° NNW visible
